Weather in Yaransk

Russia / Kirov Oblast     57°18′15″N   47°53′09″E
temp.,
°C
wind,
m/s
gust,
m/s
humid.,
%
clouds,
%
prec.,
mm/h
press.,
hPa
HPBL,
m
26 february, fri
fri2600:00−19se499599 0.1 1017264
03:00−21se489796 0.1 1018179
06:00−22se489730 0.0 1017162
09:00−20se599541 0.0 1016281
12:00−16se61092100 0.0 1015433
15:00−14se71291100 0.0 1011543
18:00−15se91692100 0.1 1006566
21:00−13se81594100 3.4 1002631
27 february, sat
sat2700:00−12se71394100 4.8 999598
03:00−12ese61193100 5.6 998423
06:00−13ese61095100 0.9 997374
09:00−12e61094100 2.2 998402
12:00−11ene61094100 1.1 999506
15:00−11ene61092100 1.6 1001568
18:00−12ne61094100 0.3 1003401
21:00−13ne599499 0.4 1005323
28 february, sun
sun2800:00−14nne5109599 0.1 1006302
03:00−15nne599599 0.1 1008305
06:00−19nne5997100 0.1 1009210
09:00−19nne579586 0.1 1011236
12:00−16n479366 0.0 1012332
15:00−14n589179 0.0 1013470
18:00−18n4697100 0.0 101597
21:00−20nne349983 0.0 101752
1 march, mon
mon100:00−22n34990 0.0 101936
03:00−23n34990 0.0 102044
06:00−24n33990 0.0 102232
09:00−20nne12970 0.0 102383
12:00−15nw238924 0.0 1023235
15:00−13wsw359143 0.0 1022297
18:00−16sw349516 0.0 102059
21:00−14sw5109637 0.0 1019246
2 march, tue
tue200:00−12sw61296100 0.0 1015286
03:00−10sw61294100 0.7 1011405
06:00−7sw61195100 0.9 1008429
09:00−4wsw61096100 1.8 1006481
12:000w59100100 0.8 1005519
15:000wnw4798100 1.4 1003469
18:00−2w489798 0.1 1003235
21:00−3wnw499699 0.3 1003227